| time (UTC) | temp C | wind direction | speed KPH | gust KPH | rain 1hr cm | rain 24hr cm | rain mn cm | humidity % | barometer mb |
| 20260503032206 | 22 | 317 | 1.6 | 3.2 | 0.00 | 0.00 | 0.00 | 99 | 1011.3 |
| 20260503024207 | 22 | 317 | 1.6 | 3.2 | 0.00 | 0.00 | 0.00 | 99 | 1010.5 |
| 20260503023209 | 22 | 317 | 1.6 | 3.2 | 0.00 | 0.00 | 0.00 | 99 | 1010.6 |
| 20260503022203 | 21 | 319 | 3.2 | 8.0 | 0.00 | 0.00 | 0.00 | 99 | 1011.2 |
| 20260503015206 | 21 | 317 | 3.2 | 20.9 | 0.00 | 0.00 | 0.00 | 98 | 1011.1 |
| 20260503010204 | 23 | 224 | 4.8 | 8.0 | 0.00 | 0.00 | 0.00 | 99 | 1010.6 |
| 20260503005210 | 22 | 220 | 3.2 | 8.0 | 0.00 | 0.00 | 0.00 | 99 | 1010.5 |
| 20260503002203 | 23 | 228 | 4.8 | 12.9 | 0.00 | 0.00 | 0.00 | 84 | 1010.6 |
| 20260503000207 | 24 | 216 | 4.8 | 12.9 | 0.00 | 0.00 | 0.00 | 84 | 1010.9 |
| 20260502234211 | 22 | 199 | 8.0 | 12.9 | 0.00 | 0.00 | 0.00 | 98 | 1011.1 |
| 20260502233209 | 23 | 225 | 8.0 | 14.5 | 0.00 | 0.00 | 0.00 | 98 | 1011.4 |
| 20260502232207 | 23 | 215 | 8.0 | 14.5 | 0.00 | 0.00 | 0.00 | 98 | 1011.5 |
| 20260502231208 | 24 | 218 | 8.0 | 14.5 | 0.00 | 0.00 | 0.00 | 98 | 1011.5 |
| 20260502230209 | 22 | 210 | 9.7 | 14.5 | 0.00 | 0.00 | 0.00 | 86 | 1011.6 |
| 20260502225207 | 23 | 202 | 8.0 | 12.9 | 0.00 | 0.00 | 0.00 | 69 | 1011.8 |
| 20260502224207 | 23 | 206 | 8.0 | 14.5 | 0.00 | 0.00 | 0.00 | 82 | 1012.3 |
| 20260502222206 | 23 | 215 | 9.7 | 16.1 | 0.00 | 0.00 | 0.00 | 94 | 1013.4 |
| 20260502220210 | 27 | 214 | 9.7 | 16.1 | 0.00 | 0.00 | 0.00 | 78 | 1012.5 |
| 20260502215209 | 28 | 200 | 8.0 | 16.1 | 0.00 | 0.00 | 0.00 | 77 | 1012.2 |
| 20260502214214 | 28 | 195 | 8.0 | 20.9 | 0.00 | 0.00 | 0.00 | 77 | 1012.3 |
| 20260502212209 | 28 | 193 | 6.4 | 14.5 | 0.00 | 0.00 | 0.00 | 75 | 1011.9 |
| 20260502211205 | 28 | 188 | 8.0 | 14.5 | 0.00 | 0.00 | 0.00 | 74 | 1011.6 |
| 20260502210207 | 28 | 163 | 6.4 | 14.5 | 0.00 | 0.00 | 0.00 | 70 | 1011.6 |
| 20260502204207 | 28 | 179 | 3.2 | 11.3 | 0.00 | 0.00 | 0.00 | 67 | 1011.6 |
| 20260502202209 | 28 | 174 | 3.2 | 9.7 | 0.00 | 0.00 | 0.00 | 68 | 1011.6 |
| 20260502201213 | 28 | 172 | 3.2 | 11.3 | 0.00 | 0.00 | 0.00 | 68 | 1011.5 |
| 20260502194208 | 27 | 136 | 3.2 | 11.3 | 0.00 | 0.00 | 0.00 | 92 | 1011.4 |
| 20260502192212 | 22 | 115 | 3.2 | 8.0 | 0.00 | 0.00 | 0.00 | 71 | 1011.0 |
| 20260502191204 | 20 | 116 | 3.2 | 8.0 | 0.00 | 0.00 | 0.00 | 71 | 1011.5 |
| 20260502190208 | 26 | 103 | 3.2 | 4.8 | 0.00 | 0.00 | 0.00 | 72 | 1011.7 |
| 20260502185210 | 30 | 93 | 3.2 | 4.8 | 0.00 | 0.00 | 0.00 | 82 | 1011.9 |
| 20260502184205 | 30 | 127 | 1.6 | 4.8 | 0.00 | 0.00 | 0.00 | 98 | 1012.0 |
| 20260502183207 | 30 | 125 | 1.6 | 3.2 | 0.00 | 0.00 | 0.00 | 87 | 1012.0 |
| 20260502182213 | 30 | 96 | 1.6 | 8.0 | 0.00 | 0.00 | 0.00 | 71 | 1012.1 |
| 20260502181210 | 30 | 82 | 1.6 | 8.0 | 0.00 | 0.00 | 0.00 | 71 | 1012.2 |
| 20260502170210 | 20 | 90 | 1.6 | 1.6 | 0.00 | 0.00 | 0.00 | 80 | 1011.4 |
| 20260502163213 | 29 | 47 | 1.6 | 3.2 | 0.00 | 0.00 | 0.00 | 79 | 1012.1 |
| 20260502162204 | 29 | 62 | 0.0 | 3.2 | 0.00 | 0.00 | 0.00 | 77 | 1012.1 |
| 20260502161213 | 28 | 97 | 0.0 | 3.2 | 0.00 | 0.00 | 0.00 | 77 | 1011.3 |
| 20260502160206 | 25 | 80 | 0.0 | 3.2 | 0.00 | 0.00 | 0.00 | 77 | 1011.5 |
| 20260502151208 | 28 | 63 | 0.0 | 1.6 | 0.00 | 0.00 | 0.00 | 76 | 1011.9 |
| 20260502150208 | 28 | 64 | 0.0 | 1.6 | 0.00 | 0.00 | 0.00 | 76 | 1011.8 |
| 20260502123211 | 22 | 0 | 0.0 | 1.6 | 0.00 | 0.00 | 0.00 | 93 | 1010.8 |
| 20260502122214 | 22 | 346 | 0.0 | 1.6 | 0.00 | 0.00 | 0.00 | 94 | 1010.8 |
| 20260502120211 | 21 | 21 | 0.0 | 0.0 | 0.00 | 0.00 | 0.00 | 96 | 1010.1 |
| 20260502115215 | 21 | 5 | 0.0 | 0.0 | 0.00 | 0.00 | 0.00 | 96 | 1010.0 |
| 20260502114205 | 21 | 336 | 0.0 | 1.6 | 0.00 | 0.00 | 0.00 | 96 | 1010.1 |
| 20260502113211 | 21 | 335 | 0.0 | 1.6 | 0.00 | 0.00 | 0.00 | 97 | 1010.0 |
| 20260502111205 | 20 | 0 | 0.0 | 0.0 | 0.00 | 0.00 | 0.00 | 98 | 1009.7 |
| 20260502102206 | 20 | 243 | 0.0 | 1.6 | 0.00 | 0.00 | 0.00 | 98 | 1009.6 |
| 20260502101204 | 20 | 243 | 0.0 | 1.6 | 0.00 | 0.00 | 0.00 | 98 | 1009.6 |
| 20260502100209 | 20 | 280 | 0.0 | 1.6 | 0.00 | 0.00 | 0.00 | 98 | 1009.7 |
| 20260502071214 | 20 | 231 | 3.2 | 4.8 | 0.00 | 0.00 | 0.00 | 98 | 1010.2 |
| 20260502070215 | 20 | 227 | 3.2 | 4.8 | 0.00 | 0.00 | 0.00 | 98 | 1010.5 |
| 20260502064212 | 21 | 232 | 3.2 | 4.8 | 0.00 | 0.00 | 0.00 | 92 | 1010.9 |
| 20260502060211 | 20 | 232 | 3.2 | 4.8 | 0.00 | 0.00 | 0.00 | 95 | 1011.5 |
| 20260502052213 | 19 | 218 | 1.6 | 9.7 | 0.00 | 0.00 | 0.00 | 96 | 1012.1 |
| 20260502050209 | 20 | 208 | 1.6 | 8.0 | 0.00 | 0.00 | 0.00 | 95 | 1012.2 |
| 20260502045214 | 21 | 210 | 1.6 | 8.0 | 0.00 | 0.00 | 0.00 | 95 | 1012.3 |
| 20260502044211 | 19 | 216 | 3.2 | 8.0 | 0.00 | 0.00 | 0.00 | 90 | 1012.4 |
| 20260502042205 | 21 | 216 | 3.2 | 8.0 | 0.00 | 0.00 | 0.00 | 71 | 1012.4 |
| 20260502040209 | 21 | 201 | 3.2 | 8.0 | 0.00 | 0.00 | 0.00 | 94 | 1012.7 |
| 20260502035210 | 21 | 205 | 3.2 | 8.0 | 0.00 | 0.00 | 0.00 | 93 | 1012.7 |